GW1094 Weather Reports


time (UTC)temp
F
wind
direction
speed
knots
gust
knots
rain 1hr
in
rain 24hr
in
rain mn
in
humidity
%
barometer
mb
20260509124102 50 150 0.9 0.9 0.00 0.00 0.00 71 4083.6
20260509123600 50 155 1.7 1.7 0.00 0.00 0.00 72 4083.9
20260509123057 50 158 0.0 0.0 0.00 0.00 0.00 72 4083.9
20260509122553 50 158 0.0 0.0 0.00 0.00 0.00 73 4083.9
20260509122050 50 158 1.7 1.7 0.00 0.00 0.00 73 4083.9
20260509121546 50 126 0.0 0.0 0.00 0.00 0.00 71 4083.9
20260509121048 50 125 0.0 0.9 0.00 0.00 0.00 72 4083.9
20260509120542 50 127 0.0 0.9 0.00 0.00 0.00 72 4083.6
20260509120040 49 139 0.9 0.9 0.00 0.00 0.00 73 4083.9
20260509115537 49 141 2.6 2.6 0.00 0.00 0.00 75 4083.9
20260509115035 49 115 3.5 4.3 0.00 0.00 0.00 75 4084.3
20260509114532 48 141 2.6 4.3 0.00 0.00 0.00 76 4084.3
20260509114031 49 143 4.3 4.3 0.00 0.00 0.00 76 4084.3
20260509113529 49 138 3.5 6.1 0.00 0.00 0.00 74 4083.9
20260509113027 49 139 2.6 2.6 0.00 0.00 0.00 72 4083.9
20260509112523 49 136 3.5 4.3 0.00 0.00 0.00 72 4083.9
20260509112020 49 127 1.7 2.6 0.00 0.00 0.00 71 4084.3
20260509111517 49 134 4.3 4.3 0.00 0.00 0.00 72 4084.3
20260509111014 49 129 4.3 5.2 0.00 0.00 0.00 73 4084.3
20260509110510 49 126 3.5 4.3 0.00 0.00 0.00 71 4084.3
20260509110008 48 127 1.7 1.7 0.00 0.00 0.00 75 4084.6
20260509105506 47 125 0.9 1.7 0.00 0.00 0.00 77 4084.3
20260509105003 47 130 2.6 2.6 0.00 0.00 0.00 81 4084.3
20260509104500 47 173 2.6 2.6 0.00 0.00 0.00 81 4084.6
20260509103957 47 168 2.6 2.6 0.00 0.00 0.00 80 4084.3
20260509103455 47 198 4.3 5.2 0.00 0.00 0.00 79 4084.9
20260509102953 47 148 0.0 0.9 0.00 0.00 0.00 77 4084.3
20260509102450 48 154 5.2 6.1 0.00 0.00 0.00 74 4084.6
20260509101946 47 165 5.2 6.1 0.00 0.00 0.00 76 4084.6
20260509101442 47 143 4.3 5.2 0.00 0.00 0.00 75 4084.6
20260509100940 46 143 4.3 5.2 0.00 0.00 0.00 77 4084.9
20260509100437 46 132 2.6 2.6 0.00 0.00 0.00 78 4085.3
20260509095933 46 122 4.3 5.2 0.00 0.00 0.00 76 4084.9
20260509095430 47 132 3.5 4.3 0.00 0.00 0.00 77 4085.3
20260509094928 47 135 3.5 4.3 0.00 0.00 0.00 77 4085.3
20260509094424 47 114 4.3 5.2 0.00 0.00 0.00 75 4085.3
20260509093922 47 131 0.9 0.9 0.00 0.00 0.00 74 4085.3
20260509093419 47 127 2.6 2.6 0.00 0.00 0.00 73 4085.6
20260509092917 47 132 2.6 2.6 0.00 0.00 0.00 75 4085.6
20260509092415 47 137 3.5 4.3 0.00 0.00 0.00 75 4085.6
20260509091913 48 121 2.6 2.6 0.00 0.00 0.00 74 4085.6
20260509091409 48 143 4.3 5.2 0.00 0.00 0.00 75 4086.0
20260509090907 48 143 3.5 4.3 0.00 0.00 0.00 75 4086.0
20260509090404 48 136 5.2 6.1 0.00 0.00 0.00 74 4085.6
20260509085902 48 144 4.3 5.2 0.00 0.00 0.00 74 4085.6
20260509085359 47 131 2.6 2.6 0.00 0.00 0.00 74 4086.0
20260509084854 47 118 2.6 2.6 0.00 0.00 0.00 72 4086.0
20260509084351 47 118 0.0 0.0 0.00 0.00 0.00 73 4086.0
20260509083849 47 118 0.0 0.9 0.00 0.00 0.00 73 4086.0
20260509083346 47 116 0.9 0.9 0.00 0.00 0.00 73 4086.3
20260509082842 47 142 1.7 2.6 0.00 0.00 0.00 73 4086.0
20260509082339 47 112 3.5 5.2 0.00 0.00 0.00 73 4086.3
20260509081837 47 105 0.9 0.9 0.00 0.00 0.00 73 4086.3
20260509081334 47 121 0.9 0.9 0.00 0.00 0.00 72 4086.3
20260509080832 47 124 0.0 0.9 0.00 0.00 0.00 73 4086.3
20260509080329 47 134 0.0 0.0 0.00 0.00 0.00 73 4086.6
20260509075827 47 110 0.9 0.9 0.00 0.00 0.00 74 4086.6
20260509075324 47 135 0.0 0.0 0.00 0.00 0.00 74 4086.6
20260509074821 47 120 1.7 2.6 0.00 0.00 0.00 73 4087.0
20260509074319 48 107 2.6 2.6 0.00 0.00 0.00 72 4087.0
20260509073815 48 129 2.6 2.6 0.00 0.00 0.00 71 4087.0
20260509073312 48 137 6.1 7.0 0.00 0.00 0.00 71 4087.0
20260509072808 47 107 3.5 5.2 0.00 0.00 0.00 73 4087.0
20260509072306 46 123 0.9 1.7 0.00 0.00 0.00 74 4087.3
20260509071801 46 136 2.6 2.6 0.00 0.00 0.00 74 4087.0
20260509071258 46 126 1.7 1.7 0.00 0.00 0.00 74 4087.6
20260509070755 46 126 2.6 2.6 0.00 0.00 0.00 74 4087.3
20260509070252 46 114 0.9 1.7 0.00 0.00 0.00 74 4087.6
20260509065748 46 116 0.9 1.7 0.00 0.00 0.00 73 4087.6
20260509065245 45 106 0.9 0.9 0.00 0.00 0.00 76 4088.0
20260509064741 45 96 0.0 0.9 0.00 0.00 0.00 76 4087.6
20260509064239 44 115 0.9 1.7 0.00 0.00 0.00 78 4088.0
20260509063736 44 120 0.9 1.7 0.00 0.00 0.00 78 4088.3
20260509063232 44 121 0.0 0.9 0.00 0.00 0.00 77 4088.0
20260509062730 44 111 0.0 0.0 0.00 0.00 0.00 77 4088.3
20260509062226 44 117 0.0 0.0 0.00 0.00 0.00 77 4088.7
20260509061724 44 120 0.0 0.0 0.00 0.00 0.00 77 4088.7
20260509061221 44 119 0.0 0.9 0.00 0.00 0.00 76 4088.7
20260509060719 44 117 0.0 0.0 0.00 0.00 0.00 77 4088.7
20260509060214 44 117 0.9 0.9 0.00 0.00 0.00 76 4088.7
20260509055710 44 126 0.9 1.7 0.00 0.00 0.00 76 4089.1
20260509055206 44 119 0.0 0.0 0.00 0.00 0.00 75 4089.1
20260509054703 44 117 0.0 0.9 0.00 0.00 0.00 76 4089.1
20260509054201 44 109 0.0 0.0 0.00 0.00 0.00 76 4089.4
20260509053659 45 106 0.0 0.0 0.00 0.00 0.00 76 4089.1
20260509053155 45 98 0.9 0.9 0.00 0.00 0.00 75 4089.4
20260509052653 44 121 0.9 1.7 0.00 0.00 0.00 76 4089.4
20260509052151 45 122 0.9 0.9 0.00 0.00 0.00 76 4089.4
20260509051648 45 114 0.9 1.7 0.00 0.00 0.00 75 4089.8
20260509051145 45 113 0.0 0.9 0.00 0.00 0.00 76 4089.8
20260509050642 45 114 0.0 0.0 0.00 0.00 0.00 76 4089.8
20260509050139 45 114 0.9 0.9 0.00 0.00 0.00 76 4090.1
20260509045637 45 119 0.0 0.0 0.00 0.00 0.00 78 4089.8
20260509045133 45 120 0.9 0.9 0.00 0.00 0.00 77 4090.1
20260509044630 46 121 0.0 0.0 0.00 0.00 0.00 76 4090.1
20260509044128 46 121 0.0 0.0 0.00 0.00 0.00 74 4090.5
20260509043624 46 129 0.0 0.9 0.00 0.00 0.00 75 4090.5
20260509043120 46 125 0.0 0.0 0.00 0.00 0.00 74 4090.5
20260509042617 46 122 0.9 1.7 0.00 0.00 0.00 74 4090.5
20260509042112 45 109 0.0 0.0 0.00 0.00 0.00 76 4090.5
20260509041609 45 109 0.0 0.0 0.00 0.00 0.00 76 4090.8
20260509041107 45 109 0.0 0.0 0.00 0.00 0.00 77 4090.8
20260509040605 45 109 0.0 0.0 0.00 0.00 0.00 77 4090.8
20260509035558 45 109 0.9 0.9 0.00 0.00 0.00 75 4090.8
20260509035055 45 108 0.0 0.0 0.00 0.00 0.00 76 4090.8
20260509034553 45 108 0.0 0.0 0.00 0.00 0.00 76 4091.1
20260509034050 45 108 0.0 0.0 0.00 0.00 0.00 75 4091.1
20260509033547 45 108 0.0 0.0 0.00 0.00 0.00 75 4091.1
20260509033044 45 119 1.7 2.6 0.00 0.00 0.00 73 4091.1
20260509032541 45 121 0.0 0.0 0.00 0.00 0.00 74 4091.1
20260509032038 45 121 0.9 1.7 0.00 0.00 0.00 73 4091.1
20260509031536 45 118 0.9 1.7 0.00 0.00 0.00 72 4091.5
20260509031033 45 121 0.0 0.0 0.00 0.00 0.00 75 4091.5
20260509030531 45 121 0.0 0.0 0.00 0.00 0.00 73 4091.5
20260509030027 45 120 0.0 0.0 0.00 0.00 0.00 73 4091.8
20260509025523 45 120 0.0 0.0 0.00 0.00 0.00 72 4091.5
20260509025019 45 122 0.0 0.0 0.00 0.00 0.00 73 4091.5
20260509024516 45 126 0.0 0.9 0.00 0.00 0.00 71 4091.5
20260509024012 45 129 0.0 0.0 0.00 0.00 0.00 73 4091.5
20260509023509 45 137 0.0 0.0 0.00 0.00 0.00 72 4091.5
20260509023006 45 139 0.0 0.0 0.00 0.00 0.00 72 4091.5
20260509022503 45 106 0.9 0.9 0.00 0.00 0.00 73 4091.5
20260509022000 45 134 0.9 0.9 0.00 0.00 0.00 72 4091.5
20260509021457 45 117 0.0 0.0 0.00 0.00 0.00 72 4091.5
20260509020954 44 128 0.0 0.0 0.00 0.00 0.00 73 4091.5
20260509020453 44 130 0.0 0.0 0.00 0.00 0.00 75 4091.5
20260509015949 44 131 0.0 0.0 0.00 0.00 0.00 75 4091.5
20260509015448 44 152 0.0 0.0 0.00 0.00 0.00 77 4091.5
20260509014944 43 152 0.0 0.0 0.00 0.00 0.00 78 4091.5
20260509014441 43 152 0.0 0.0 0.00 0.00 0.00 80 4091.5
20260509013937 43 152 0.0 0.0 0.00 0.00 0.00 81 4091.5
20260509013435 43 152 0.0 0.0 0.00 0.00 0.00 81 4091.5
20260509012930 43 152 0.0 0.0 0.00 0.00 0.00 80 4091.5
20260509012427 43 152 0.0 0.0 0.00 0.00 0.00 79 4091.5
20260509011924 44 152 0.0 0.0 0.00 0.00 0.00 78 4091.5
20260509011421 44 152 0.0 0.0 0.00 0.00 0.00 77 4091.5
20260509010919 44 152 0.0 0.0 0.00 0.00 0.00 76 4091.5
20260509010416 44 152 0.0 0.0 0.00 0.00 0.00 76 4091.5
20260509005913 45 152 0.0 0.0 0.00 0.00 0.00 75 4091.5
20260509005411 45 153 0.0 0.0 0.00 0.00 0.00 76 4091.5
20260509004911 46 154 0.0 0.0 0.00 0.00 0.00 75 4091.5
20260509004408 46 154 0.0 0.0 0.00 0.00 0.00 74 4091.5
20260509003906 46 154 0.0 0.0 0.00 0.00 0.00 74 4091.5
20260509003403 47 164 0.0 0.0 0.00 0.00 0.00 74 4091.5
20260509002900 47 176 0.0 0.0 0.00 0.00 0.00 76 4091.5
20260509002358 47 177 0.9 1.7 0.00 0.00 0.00 76 4091.5
20260509001855 47 178 0.0 0.0 0.00 0.00 0.00 74 4091.5
20260509001351 48 117 2.6 2.6 0.00 0.00 0.00 78 4091.5
20260509000848 48 112 0.0 0.0 0.00 0.00 0.00 71 4091.5
20260509000348 48 113 0.0 0.0 0.00 0.00 0.00 75 4091.5
20260508235842 51 112 0.9 1.7 0.00 0.00 0.00 71 4091.5
20260508235339 51 52 0.0 0.0 0.00 0.00 0.00 60 4091.5
20260508234836 51 51 0.0 0.0 0.00 0.00 0.00 60 4091.8
20260508234333 51 20 0.9 1.7 0.00 0.00 0.00 59 4091.5
20260508233831 50 36 0.0 0.0 0.00 0.00 0.00 61 4091.8
20260508233330 50 37 0.0 0.0 0.00 0.00 0.00 62 4091.8
20260508232827 51 44 0.0 0.9 0.00 0.00 0.00 64 4091.8
20260508232323 51 327 0.9 0.9 0.00 0.00 0.00 63 4091.8
20260508231822 51 354 0.0 0.0 0.00 0.00 0.00 62 4091.8
20260508231317 51 13 0.0 0.9 0.00 0.00 0.00 63 4091.8
20260508230814 51 52 2.6 2.6 0.00 0.00 0.00 63 4091.8
20260508230311 51 355 1.7 2.6 0.00 0.00 0.00 62 4091.8
20260508225809 51 316 0.9 1.7 0.00 0.00 0.00 67 4091.8
20260508225306 51 337 0.0 0.0 0.00 0.00 0.00 67 4092.1
20260508224803 51 5 0.0 0.9 0.00 0.00 0.00 67 4092.1
20260508224300 52 44 0.9 1.7 0.00 0.00 0.00 65 4091.8
20260508223758 52 19 0.0 0.9 0.00 0.00 0.00 63 4091.8
20260508223255 53 356 0.9 1.7 0.00 0.00 0.00 61 4092.1
20260508222752 53 16 0.9 0.9 0.00 0.00 0.00 61 4092.1
20260508222249 53 57 0.0 0.9 0.00 0.00 0.00 61 4091.8
20260508221746 53 29 0.9 1.7 0.00 0.00 0.00 60 4092.1
20260508221242 54 111 0.9 1.7 0.00 0.00 0.00 60 4092.1
20260508220738 53 66 0.0 0.9 0.00 0.00 0.00 60 4092.1
20260508220234 53 339 0.9 0.9 0.00 0.00 0.00 59 4092.5
20260508215731 53 347 1.7 1.7 0.00 0.00 0.00 58 4092.5
20260508215227 54 325 0.9 1.7 0.00 0.00 0.00 59 4092.1
20260508214725 55 161 0.0 0.9 0.00 0.00 0.00 60 4092.5
20260508214222 54 208 0.0 0.9 0.00 0.00 0.00 60 4092.5
20260508213718 54 12 0.0 0.0 0.00 0.00 0.00 61 4092.5
20260508213215 53 301 0.0 0.9 0.00 0.00 0.00 63 4092.5
20260508212712 52 170 0.9 1.7 0.00 0.00 0.00 64 4092.1
20260508212208 53 318 0.9 0.9 0.00 0.00 0.00 66 4092.5
20260508211703 52 62 0.0 0.0 0.00 0.00 0.00 67 4092.5
20260508211159 52 293 0.9 0.9 0.00 0.00 0.00 68 4092.5
20260508210657 52 75 0.9 0.9 0.00 0.00 0.00 70 4092.5
20260508210154 51 55 0.9 1.7 0.00 0.00 0.00 72 4092.5
20260508205651 52 334 0.9 0.9 0.00 0.00 0.00 75 4092.8
20260508205147 51 140 0.9 0.9 0.00 0.00 0.00 77 4092.8
20260508204643 51 323 0.9 0.9 0.00 0.00 0.00 78 4092.5
20260508204140 51 75 0.9 1.7 0.00 0.00 0.00 79 4092.8
20260508203636 50 90 0.9 0.9 0.00 0.00 0.00 79 4092.5
20260508203132 50 123 0.9 0.9 0.00 0.00 0.00 80 4092.5
20260508202629 49 293 0.9 0.9 0.00 0.00 0.00 83 4092.8
20260508202126 50 343 1.7 4.3 0.00 0.00 0.00 81 4092.8
20260508201623 51 52 0.0 0.9 0.00 0.00 0.00 79 4092.8
20260508201119 50 234 0.9 0.9 0.00 0.00 0.00 81 4092.8
20260508200616 51 90 0.9 0.9 0.00 0.00 0.00 75 4093.2
20260508200112 50 236 0.9 1.7 0.00 0.00 0.00 79 4093.2
20260508195609 51 50 2.6 2.6 0.00 0.00 0.00 77 4093.2
20260508195105 51 255 0.9 1.7 0.00 0.00 0.00 80 4093.2
20260508194602 51 224 0.9 0.9 0.00 0.00 0.00 80 4093.5
20260508194059 50 216 0.9 1.7 0.00 0.00 0.00 81 4093.5
20260508193555 50 63 2.6 2.6 0.00 0.00 0.00 80 4093.5
20260508193053 50 221 2.6 2.6 0.00 0.00 0.00 80 4093.5
20260508192549 51 82 0.9 0.9 0.00 0.00 0.00 77 4093.5
20260508192046 52 198 1.7 1.7 0.00 0.00 0.00 76 4093.5
20260508191543 52 233 0.0 0.9 0.00 0.00 0.00 77 4093.8
20260508191040 51 191 1.7 2.6 0.00 0.00 0.00 78 4093.8
20260508190537 51 282 0.9 1.7 0.00 0.00 0.00 79 4093.8
20260508190033 51 203 1.7 2.6 0.00 0.00 0.00 77 4093.8
20260508185531 51 162 0.0 0.9 0.00 0.00 0.00 76 4093.8
20260508185028 51 217 0.0 0.0 0.00 0.00 0.00 76 4093.8
20260508184525 51 163 0.9 0.9 0.00 0.00 0.00 78 4093.8
20260508184022 51 223 2.6 2.6 0.00 0.00 0.00 77 4093.8
20260508183519 51 204 1.7 1.7 0.00 0.00 0.00 77 4093.8
20260508183015 51 36 1.7 1.7 0.00 0.00 0.00 76 4093.8
20260508182511 50 157 1.7 1.7 0.00 0.00 0.00 78 4093.8
20260508182008 50 225 2.6 2.6 0.00 0.00 0.00 80 4093.8
20260508181503 50 230 2.6 2.6 0.00 0.00 0.00 82 4093.8
20260508181001 49 159 0.9 2.6 0.00 0.00 0.00 80 4093.8
20260508180457 49 219 0.9 1.7 0.00 0.00 0.00 82 4093.8
20260508175953 49 135 1.7 2.6 0.00 0.00 0.00 82 4094.2
20260508175450 49 59 0.0 0.0 0.00 0.00 0.00 82 4094.2
20260508174948 50 50 0.0 0.0 0.00 0.00 0.00 82 4094.2
20260508174445 50 240 1.7 2.6 0.00 0.00 0.00 86 4094.2
20260508173942 50 138 0.9 0.9 0.00 0.00 0.00 84 4094.2
20260508173439 49 231 2.6 4.3 0.00 0.00 0.00 83 4094.2
20260508172935 50 226 1.7 1.7 0.00 0.00 0.00 82 4094.5
20260508172433 49 134 0.9 0.9 0.00 0.00 0.00 83 4094.5
20260508171929 48 84 0.0 0.0 0.00 0.00 0.00 82 4094.5
20260508171425 48 165 0.9 0.9 0.00 0.00 0.00 85 4094.5
20260508170922 48 143 0.0 0.9 0.00 0.00 0.00 83 4094.2
20260508170419 49 189 0.9 2.6 0.00 0.00 0.00 81 4094.2
20260508165915 49 113 0.0 0.9 0.00 0.00 0.00 82 4094.5
20260508165414 48 78 0.9 1.7 0.00 0.00 0.00 82 4094.5
20260508164909 48 225 1.7 1.7 0.00 0.00 0.00 83 4094.5
20260508164407 47 16 0.9 1.7 0.00 0.00 0.00 83 4094.9
20260508163904 46 49 0.9 0.9 0.00 0.00 0.00 85 4094.9
20260508163402 46 327 2.6 2.6 0.00 0.00 0.00 84 4094.9
20260508162857 46 29 1.7 2.6 0.00 0.00 0.00 84 4094.9
20260508162354 47 60 1.7 1.7 0.00 0.00 0.00 83 4094.9
20260508161851 46 58 1.7 1.7 0.00 0.00 0.00 83 4094.9
20260508161349 46 70 0.9 0.9 0.00 0.00 0.00 85 4094.9
20260508160846 46 45 1.7 2.6 0.00 0.00 0.00 85 4094.9
20260508160344 45 350 2.6 4.3 0.00 0.00 0.00 85 4094.9
20260508155840 45 359 1.7 1.7 0.00 0.00 0.00 85 4094.9
20260508155338 46 350 2.6 4.3 0.00 0.00 0.00 84 4095.2
20260508154834 45 349 4.3 5.2 0.00 0.00 0.00 84 4095.2
20260508154332 45 351 2.6 2.6 0.00 0.00 0.00 85 4095.2
20260508153828 46 25 1.7 1.7 0.00 0.00 0.00 85 4095.5
20260508153326 45 85 0.9 0.9 0.00 0.00 0.00 86 4095.2
20260508152821 45 356 2.6 4.3 0.00 0.00 0.00 84 4095.2
20260508152318 46 357 2.6 4.3 0.00 0.00 0.00 84 4095.2
20260508151815 46 90 0.0 0.9 0.00 0.00 0.00 84 4095.5
20260508151312 46 109 0.0 0.9 0.00 0.00 0.00 84 4095.5
20260508150808 47 200 1.7 1.7 0.00 0.00 0.00 84 4095.2
20260508150305 48 200 1.7 2.6 0.00 0.00 0.00 82 4095.5
20260508145802 48 208 1.7 2.6 0.00 0.00 0.00 83 4095.5
20260508145257 47 179 0.9 1.7 0.00 0.00 0.00 83 4095.5
20260508144754 46 219 1.7 1.7 0.00 0.00 0.00 85 4095.5
20260508144252 47 217 0.0 0.9 0.00 0.00 0.00 86 4095.5
20260508143749 47 202 1.7 1.7 0.00 0.00 0.00 84 4095.5
20260508143246 46 213 0.0 0.0 0.00 0.00 0.00 83 4095.5
20260508142742 44 219 0.9 1.7 0.00 0.00 0.00 84 4095.5
20260508142239 44 217 2.6 2.6 0.00 0.00 0.00 81 4095.5
20260508141736 44 215 1.7 1.7 0.00 0.00 0.00 82 4095.5
20260508141234 44 214 2.6 2.6 0.00 0.00 0.00 82 4095.9
20260508140731 44 193 1.7 2.6 0.00 0.00 0.00 83 4095.9
20260508140227 43 192 0.9 0.9 0.00 0.00 0.00 86 4095.9
20260508135723 43 191 1.7 1.7 0.00 0.00 0.00 88 4095.9
20260508135219 43 191 0.9 0.9 0.00 0.00 0.00 88 4095.9
20260508134710 43 191 0.9 0.9 0.00 0.00 0.00 88 4095.5
20260508134207 43 191 0.9 1.7 0.00 0.00 0.00 87 4095.9
20260508133704 42 191 0.9 0.9 0.00 0.00 0.00 88 4095.9
20260508133201 42 191 1.7 1.7 0.00 0.00 0.00 88 4095.9
20260508132659 42 191 0.9 0.9 0.00 0.00 0.00 88 4095.9
20260508132156 42 191 0.9 0.9 0.00 0.00 0.00 91 4095.9
20260508131651 41 191 0.0 0.0 0.00 0.00 0.00 93 4095.9
20260508131148 41 191 0.9 0.9 0.00 0.00 0.00 92 4095.9
20260508130645 41 191 1.7 1.7 0.00 0.00 0.00 92 4095.9
20260508130142 41 192 0.0 0.9 0.00 0.00 0.00 92 4095.9
20260508125637 40 192 1.7 1.7 0.00 0.00 0.00 93 4095.9
20260508125134 40 193 1.7 1.7 0.00 0.00 0.00 94 4095.9
20260508124632 40 194 0.9 1.7 0.00 0.00 0.00 94 4095.9